Find Starlink 33551

NORAD ID: 62110 Int'l Des: 2024-220 Owner: SPXS Country: US Constellation: starlink operational
LEOCIRCULAR

現在のビュー

3D地球を読み込み中...

About Starlink 33551

Starlink 33551 (NORAD 62110) is a starlink constellation satellite (v2 mini) launched Nov 25, 2024 by SPXS of US. It operates in LEO, CIRCULAR orbit with a mass of 530.00 kg.

次回通過

Passes for default location (London). Set your location on the main map for personalized predictions.

高度履歴

Loading altitude history...

軌道要素

1 62110U 24220Y 26237.53621059 .00012878 00000-0 47656-3 0 9998
2 62110 43.0003 332.0227 0001255 286.1000 73.9714 15.27589299 99018
Epoch: Aug 25, 2026 • Age: 5 hours

現在のステータス

高度 484.3 km
遠地点 / 近地点 N/A
速度 7.63 km/s
衛星直下点 31.48°N, 130.72°E
打ち上げ日 Nov 25, 2024
運用期間 1.7 years
タイプ internet

技術仕様

分類 Payload
質量 530.00 kg
乾燥質量 500.00 kg
総質量 530.00 kg
長さ 0.30 m
直径 4.10 m
スパン 29.00 m
形状 Box + pan
製造者 SPXS
バスタイプ Starlink V2MO
フェーズステータス In Orbit
所有者/国 SPXS/US

Most Searched